COMSATBW-2

Last updated on Jan. 29, 2020, 4:37 a.m. UTC

1 36582U 10021B   20028.26321803  .00000086  00000-0  00000-0 0  9999
2 36582   0.0344  82.1575 0001603 236.3730 276.3969  1.00275445 35579
UTC
Height (km)
Latitude
Longitude
Inclination
Orbital Period
UTC large
Height (km)
Speed (km/s)
/
Latitude / Longitude
Inclination (degrees)
Orbital Period (minutes)
Azimuth
Elevation
Range (km)
Doppler Factor
iOS Compass Heading
iOS Angle

Next 30 passes for location: Hong Kong

Rise time Rise Azimuth (degrees) Set time Set Azimuth (degrees) Duration Max altitude (degrees)

No matching passes for this satellites